Year,Month,Day,Hour,Minute,Value (Times are PST for windspeed in km/hr)
2019,09,30,00,00,2.40
2019,09,30,00,01,2.30
2019,09,30,00,02,3.40
2019,09,30,00,03,4.40
2019,09,30,00,04,1.50
2019,09,30,00,05,2.50
2019,09,30,00,06,4.50
2019,09,30,00,07,4.30
2019,09,30,00,08,3.40
2019,09,30,00,09,2.70
2019,09,30,00,10,4.00
2019,09,30,00,11,3.50
2019,09,30,00,12,6.10
2019,09,30,00,13,3.90
2019,09,30,00,14,3.40
2019,09,30,00,15,3.60
2019,09,30,00,16,5.00
2019,09,30,00,17,3.10
2019,09,30,00,18,5.60
2019,09,30,00,19,7.70
2019,09,30,00,20,7.10
2019,09,30,00,21,5.80
2019,09,30,00,22,3.90
2019,09,30,00,23,5.40
2019,09,30,00,24,6.70
2019,09,30,00,25,5.90
2019,09,30,00,26,5.30
2019,09,30,00,27,4.20
2019,09,30,00,28,4.30
2019,09,30,00,29,5.90
2019,09,30,00,30,5.40
2019,09,30,00,31,7.50
2019,09,30,00,32,4.80
2019,09,30,00,33,4.50
2019,09,30,00,34,3.10
2019,09,30,00,35,5.90
2019,09,30,00,36,3.40
2019,09,30,00,37,4.20
2019,09,30,00,38,6.40
2019,09,30,00,39,6.80
2019,09,30,00,40,5.10
2019,09,30,00,41,4.10
2019,09,30,00,42,5.10
2019,09,30,00,43,6.60
2019,09,30,00,44,5.30
2019,09,30,00,45,4.90
2019,09,30,00,46,5.70
2019,09,30,00,47,5.60
2019,09,30,00,48,4.70
2019,09,30,00,49,5.60
2019,09,30,00,50,5.00
2019,09,30,00,51,6.10
2019,09,30,00,52,6.70
2019,09,30,00,53,6.10
2019,09,30,00,54,3.80
2019,09,30,00,55,2.30
2019,09,30,00,56,4.80
2019,09,30,00,57,6.90
2019,09,30,00,58,7.70
2019,09,30,00,59,2.90
2019,09,30,01,00,5.60
2019,09,30,01,01,6.20
2019,09,30,01,02,4.60
2019,09,30,01,03,8.20
2019,09,30,01,04,6.50
2019,09,30,01,05,4.90
2019,09,30,01,06,4.80
2019,09,30,01,07,3.80
2019,09,30,01,08,1.10
2019,09,30,01,09,4.30
2019,09,30,01,10,8.20
2019,09,30,01,11,5.90
2019,09,30,01,12,8.20
2019,09,30,01,13,3.50
2019,09,30,01,14,6.30
2019,09,30,01,15,2.90
2019,09,30,01,16,0.60
2019,09,30,01,17,3.90
2019,09,30,01,18,6.70
2019,09,30,01,19,6.30
2019,09,30,01,20,2.80
2019,09,30,01,21,4.60
2019,09,30,01,22,5.90
2019,09,30,01,23,7.50
2019,09,30,01,24,7.80
2019,09,30,01,25,7.10
2019,09,30,01,26,5.70
2019,09,30,01,27,3.70
2019,09,30,01,28,9.30
2019,09,30,01,29,8.10
2019,09,30,01,30,7.00
2019,09,30,01,31,7.20
2019,09,30,01,32,9.30
2019,09,30,01,33,9.50
2019,09,30,01,34,9.50
2019,09,30,01,35,8.20
2019,09,30,01,36,5.80
2019,09,30,01,37,8.50
2019,09,30,01,38,9.20
2019,09,30,01,39,7.70
2019,09,30,01,40,7.60
2019,09,30,01,41,7.00
2019,09,30,01,42,5.30
2019,09,30,01,43,4.90
2019,09,30,01,44,6.90
2019,09,30,01,45,6.10
2019,09,30,01,46,5.80
2019,09,30,01,47,2.90
2019,09,30,01,48,3.70
2019,09,30,01,49,6.10
2019,09,30,01,50,4.70
2019,09,30,01,51,7.70
2019,09,30,01,52,6.00
2019,09,30,01,53,6.00
2019,09,30,01,54,2.70
2019,09,30,01,55,0.50
2019,09,30,01,56,1.90
2019,09,30,01,57,0.50
2019,09,30,01,58,1.70
2019,09,30,01,59,1.10
2019,09,30,02,00,0.00
2019,09,30,02,01,0.50
2019,09,30,02,02,0.80
2019,09,30,02,03,1.40
2019,09,30,02,04,1.30
2019,09,30,02,05,0.50
2019,09,30,02,06,3.30
2019,09,30,02,07,4.50
2019,09,30,02,08,1.20
2019,09,30,02,09,0.00
2019,09,30,02,10,0.30
2019,09,30,02,11,0.00
2019,09,30,02,12,0.10
2019,09,30,02,13,0.00
2019,09,30,02,14,0.00
2019,09,30,02,15,0.00
2019,09,30,02,16,0.20
2019,09,30,02,17,0.20
2019,09,30,02,18,0.20
2019,09,30,02,19,0.00
2019,09,30,02,20,0.60
2019,09,30,02,21,0.20
2019,09,30,02,22,0.00
2019,09,30,02,23,0.00
2019,09,30,02,24,0.00
2019,09,30,02,25,0.40
2019,09,30,02,26,0.20
2019,09,30,02,27,1.10
2019,09,30,02,28,3.40
2019,09,30,02,29,1.10
2019,09,30,02,30,0.00
2019,09,30,02,31,0.00
2019,09,30,02,32,0.00
2019,09,30,02,33,0.00
2019,09,30,02,34,0.20
2019,09,30,02,35,0.70
2019,09,30,02,36,0.00
2019,09,30,02,37,0.00
2019,09,30,02,38,0.00
2019,09,30,02,39,0.00
2019,09,30,02,40,0.00
2019,09,30,02,41,0.00
2019,09,30,02,42,0.00
2019,09,30,02,43,0.00
2019,09,30,02,44,0.00
2019,09,30,02,45,0.00
2019,09,30,02,46,0.00
2019,09,30,02,47,0.00
2019,09,30,02,48,0.00
2019,09,30,02,49,0.30
2019,09,30,02,50,0.00
2019,09,30,02,51,0.00
2019,09,30,02,52,0.30
2019,09,30,02,53,1.40
2019,09,30,02,54,0.20
2019,09,30,02,55,0.00
2019,09,30,02,56,0.00
2019,09,30,02,57,0.00
2019,09,30,02,58,0.00
2019,09,30,02,59,2.10
2019,09,30,03,00,2.60
2019,09,30,03,01,3.10
2019,09,30,03,02,0.20
2019,09,30,03,03,4.30
2019,09,30,03,04,7.00
2019,09,30,03,05,3.90
2019,09,30,03,06,1.40
2019,09,30,03,07,0.00
2019,09,30,03,08,0.00
2019,09,30,03,09,1.90
2019,09,30,03,10,3.20
2019,09,30,03,11,2.10
2019,09,30,03,12,4.40
2019,09,30,03,13,3.40
2019,09,30,03,14,2.00
2019,09,30,03,15,0.00
2019,09,30,03,16,0.00
2019,09,30,03,17,1.40
2019,09,30,03,18,1.10
2019,09,30,03,19,1.00
2019,09,30,03,20,0.00
2019,09,30,03,21,0.00
2019,09,30,03,22,0.50
2019,09,30,03,23,0.20
2019,09,30,03,24,0.20
2019,09,30,03,25,0.00
2019,09,30,03,26,0.00
2019,09,30,03,27,0.00
2019,09,30,03,28,1.20
2019,09,30,03,29,0.00
2019,09,30,03,30,0.00
2019,09,30,03,31,3.10
2019,09,30,03,32,5.90
2019,09,30,03,33,3.60
2019,09,30,03,34,1.90
2019,09,30,03,35,3.50
2019,09,30,03,36,3.60
2019,09,30,03,37,0.10
2019,09,30,03,38,0.80
2019,09,30,03,39,1.80
2019,09,30,03,40,2.70
2019,09,30,03,41,2.20
2019,09,30,03,42,1.80
2019,09,30,03,43,0.00
2019,09,30,03,44,0.40
2019,09,30,03,45,0.00
2019,09,30,03,46,0.10
2019,09,30,03,47,2.10
2019,09,30,03,48,2.20
2019,09,30,03,49,0.00
2019,09,30,03,50,0.00
2019,09,30,03,51,0.20
2019,09,30,03,52,0.00
2019,09,30,03,53,2.00
2019,09,30,03,54,5.60
2019,09,30,03,55,3.10
2019,09,30,03,56,0.00
2019,09,30,03,57,1.50
2019,09,30,03,58,5.80
2019,09,30,03,59,5.60
2019,09,30,04,00,3.40
2019,09,30,04,01,0.10
2019,09,30,04,02,0.40
2019,09,30,04,03,2.60
2019,09,30,04,04,3.80
2019,09,30,04,08,5.80
2019,09,30,04,09,6.30
2019,09,30,04,10,7.60
2019,09,30,04,11,5.30
2019,09,30,04,12,5.80
2019,09,30,04,13,7.20
2019,09,30,04,14,5.90
2019,09,30,04,15,5.80
2019,09,30,04,16,8.00
2019,09,30,04,17,6.80
2019,09,30,04,18,6.50
2019,09,30,04,19,9.00
2019,09,30,04,20,4.70
2019,09,30,04,21,5.00
2019,09,30,04,22,7.30
2019,09,30,04,23,4.90
2019,09,30,04,24,9.30
2019,09,30,04,25,6.10
2019,09,30,04,26,7.60
2019,09,30,04,27,4.40
2019,09,30,04,28,7.10
2019,09,30,04,29,6.90
2019,09,30,04,30,5.70
2019,09,30,04,31,7.20
2019,09,30,04,32,6.00
2019,09,30,04,33,5.20
2019,09,30,04,34,6.80
2019,09,30,04,35,8.80
2019,09,30,04,36,3.00
2019,09,30,04,37,2.30
2019,09,30,04,38,4.80
2019,09,30,04,39,4.50
2019,09,30,04,40,7.50
2019,09,30,04,41,6.10
2019,09,30,04,42,7.20
2019,09,30,04,43,4.80
2019,09,30,04,44,4.70
2019,09,30,04,45,6.50
2019,09,30,04,46,5.60
2019,09,30,04,47,5.10
2019,09,30,04,48,5.70
2019,09,30,04,49,6.00
2019,09,30,04,50,5.20
2019,09,30,04,51,7.60
2019,09,30,04,52,9.90
2019,09,30,04,53,9.00
2019,09,30,04,54,7.40
2019,09,30,04,55,6.70
2019,09,30,04,56,7.70
2019,09,30,04,57,7.80
2019,09,30,04,58,6.50
2019,09,30,04,59,7.20
2019,09,30,05,00,6.30
2019,09,30,05,01,7.50
2019,09,30,05,02,10.30
2019,09,30,05,03,8.00
2019,09,30,05,04,8.20
2019,09,30,05,05,7.50
2019,09,30,05,06,9.60
2019,09,30,05,07,6.50
2019,09,30,05,08,4.20
2019,09,30,05,09,5.80
2019,09,30,05,10,7.90
2019,09,30,05,11,8.10
2019,09,30,05,12,5.70
2019,09,30,05,13,3.00
2019,09,30,05,14,4.00
2019,09,30,05,15,3.30
2019,09,30,05,16,4.70
2019,09,30,05,17,4.20
2019,09,30,05,18,5.10
2019,09,30,05,19,5.20
2019,09,30,05,20,8.10
2019,09,30,05,21,9.40
2019,09,30,05,22,11.90
2019,09,30,05,23,12.10
2019,09,30,05,24,13.50
2019,09,30,05,25,11.50
2019,09,30,05,26,10.30
2019,09,30,05,27,11.30
2019,09,30,05,28,12.20
2019,09,30,05,29,11.60
2019,09,30,05,30,12.00
2019,09,30,05,31,11.40
2019,09,30,05,32,10.20
2019,09,30,05,33,11.90
2019,09,30,05,34,12.90
2019,09,30,05,35,10.90
2019,09,30,05,36,14.30
2019,09,30,05,37,10.70
2019,09,30,05,38,12.60
2019,09,30,05,39,13.70
2019,09,30,05,40,12.20
2019,09,30,05,41,13.80
2019,09,30,05,42,12.00
2019,09,30,05,43,10.70
2019,09,30,05,44,12.40
2019,09,30,05,45,10.60
2019,09,30,05,46,9.80
2019,09,30,05,47,9.70
2019,09,30,05,48,9.10
2019,09,30,05,49,9.50
2019,09,30,05,50,9.50
2019,09,30,05,51,9.70
2019,09,30,05,52,10.20
2019,09,30,05,53,10.60
2019,09,30,05,54,12.10
2019,09,30,05,55,11.80
2019,09,30,05,56,10.80
2019,09,30,05,57,11.70
2019,09,30,05,58,9.70
2019,09,30,05,59,7.30
2019,09,30,06,00,10.70
2019,09,30,06,01,10.20
2019,09,30,06,02,9.20
2019,09,30,06,03,11.00
2019,09,30,06,04,11.10
2019,09,30,06,05,11.80
2019,09,30,06,06,10.00
2019,09,30,06,07,9.80
2019,09,30,06,08,12.20
2019,09,30,06,09,11.20
2019,09,30,06,10,8.70
2019,09,30,06,11,8.90
2019,09,30,06,12,12.10
2019,09,30,06,13,10.50
2019,09,30,06,14,11.60
2019,09,30,06,15,9.70
2019,09,30,06,16,9.60
2019,09,30,06,17,9.00
2019,09,30,06,18,8.70
2019,09,30,06,19,7.70
2019,09,30,06,20,6.60
2019,09,30,06,21,6.00
2019,09,30,06,22,6.40
2019,09,30,06,23,5.00
2019,09,30,06,24,6.50
2019,09,30,06,25,2.30
2019,09,30,06,26,0.00
2019,09,30,06,27,0.00
2019,09,30,06,28,0.00
2019,09,30,06,29,1.40
2019,09,30,06,30,1.30
2019,09,30,06,31,4.10
2019,09,30,06,32,5.10
2019,09,30,06,33,8.00
2019,09,30,06,34,8.80
2019,09,30,06,35,7.60
2019,09,30,06,36,4.80
2019,09,30,06,37,9.80
2019,09,30,06,38,8.40
2019,09,30,06,39,7.70
2019,09,30,06,40,8.90
2019,09,30,06,41,9.10
2019,09,30,06,42,7.40
2019,09,30,06,43,4.80
2019,09,30,06,44,5.10
2019,09,30,06,45,3.90
2019,09,30,06,46,4.40
2019,09,30,06,47,4.10
2019,09,30,06,48,5.00
2019,09,30,06,49,5.40
2019,09,30,06,50,6.50
2019,09,30,06,51,8.30
2019,09,30,06,52,9.70
2019,09,30,06,53,7.70
2019,09,30,06,54,10.00
2019,09,30,06,55,6.80
2019,09,30,06,56,5.90
2019,09,30,06,57,5.00
2019,09,30,06,58,4.90
2019,09,30,06,59,5.00
2019,09,30,07,00,4.30
2019,09,30,07,01,6.00
2019,09,30,07,02,5.10
2019,09,30,07,03,4.80
2019,09,30,07,04,4.50
2019,09,30,07,05,7.70
2019,09,30,07,06,4.60
2019,09,30,07,07,1.20
2019,09,30,07,08,4.40
2019,09,30,07,09,7.00
2019,09,30,07,10,5.50
2019,09,30,07,11,4.60
2019,09,30,07,12,4.00
2019,09,30,07,13,7.00
2019,09,30,07,14,4.90
2019,09,30,07,15,5.60
2019,09,30,07,16,6.60
2019,09,30,07,17,2.70
2019,09,30,07,18,0.50
2019,09,30,07,19,2.20
2019,09,30,07,20,0.30
2019,09,30,07,21,0.20
2019,09,30,07,22,0.00
2019,09,30,07,23,0.10
2019,09,30,07,24,0.30
2019,09,30,07,25,0.20
2019,09,30,07,26,1.30
2019,09,30,07,27,0.00
2019,09,30,07,28,0.00
2019,09,30,07,29,0.00
2019,09,30,07,30,0.00
2019,09,30,07,31,0.00
2019,09,30,07,32,0.00
2019,09,30,07,33,0.00
2019,09,30,07,34,0.00
2019,09,30,07,35,0.00
2019,09,30,07,36,0.00
2019,09,30,07,37,0.00
2019,09,30,07,38,0.00
2019,09,30,07,39,0.00
2019,09,30,07,40,0.00
2019,09,30,07,41,0.00
2019,09,30,07,42,0.10
2019,09,30,07,43,0.00
2019,09,30,07,44,0.00
2019,09,30,07,45,0.00
2019,09,30,07,46,0.00
2019,09,30,07,47,0.00
2019,09,30,07,48,0.30
2019,09,30,07,49,0.10
2019,09,30,07,50,0.10
2019,09,30,07,51,0.10
2019,09,30,07,52,3.60
2019,09,30,07,53,4.10
2019,09,30,07,54,2.80
2019,09,30,07,55,4.30
2019,09,30,07,56,3.80
2019,09,30,07,57,4.30
2019,09,30,07,58,3.50
2019,09,30,07,59,3.10
2019,09,30,08,00,2.00
2019,09,30,08,01,5.60
2019,09,30,08,02,4.40
2019,09,30,08,03,3.90
2019,09,30,08,04,3.70
2019,09,30,08,05,4.40
2019,09,30,08,06,4.60
2019,09,30,08,07,4.70
2019,09,30,08,08,2.90
2019,09,30,08,09,1.80
2019,09,30,08,10,0.30
2019,09,30,08,11,0.70
2019,09,30,08,12,0.20
2019,09,30,08,13,0.00
2019,09,30,08,14,0.00
2019,09,30,08,15,0.00
2019,09,30,08,16,0.00
2019,09,30,08,17,0.00
2019,09,30,08,18,0.00
2019,09,30,08,19,0.00
2019,09,30,08,20,0.00
2019,09,30,08,21,0.00
2019,09,30,08,22,0.00
2019,09,30,08,23,0.00
2019,09,30,08,24,0.00
2019,09,30,08,25,0.00
2019,09,30,08,26,0.10
2019,09,30,08,27,0.00
2019,09,30,08,28,0.00
2019,09,30,08,29,0.00
2019,09,30,08,30,0.20
2019,09,30,08,31,0.00
2019,09,30,08,32,0.00
2019,09,30,08,33,0.10
2019,09,30,08,34,0.00
2019,09,30,08,35,0.00
2019,09,30,08,36,0.00
2019,09,30,08,37,0.00
2019,09,30,08,38,0.00
2019,09,30,08,39,0.00
2019,09,30,08,40,0.00
2019,09,30,08,41,0.00
2019,09,30,08,42,0.00
2019,09,30,08,43,0.10
2019,09,30,08,44,0.20
2019,09,30,08,45,0.00
2019,09,30,08,46,0.00
2019,09,30,08,47,0.30
2019,09,30,08,48,0.60
2019,09,30,08,49,0.60
2019,09,30,08,50,0.40
2019,09,30,08,51,1.30
2019,09,30,08,52,1.30
2019,09,30,08,53,0.80
2019,09,30,08,54,0.20
2019,09,30,08,55,0.00
2019,09,30,08,56,0.10
2019,09,30,08,57,0.00
2019,09,30,08,58,0.00
2019,09,30,08,59,0.10
2019,09,30,09,00,0.00
2019,09,30,09,01,0.00
2019,09,30,09,02,0.10
2019,09,30,09,03,0.50
2019,09,30,09,04,0.20
2019,09,30,09,05,1.90
2019,09,30,09,06,3.30
2019,09,30,09,07,1.70
2019,09,30,09,08,1.30
2019,09,30,09,09,2.20
2019,09,30,09,10,0.80
2019,09,30,09,11,1.60
2019,09,30,09,12,1.10
2019,09,30,09,13,2.70
2019,09,30,09,14,1.50
2019,09,30,09,15,2.10
2019,09,30,09,16,2.50
2019,09,30,09,17,3.10
2019,09,30,09,18,3.40
2019,09,30,09,19,2.20
2019,09,30,09,20,4.10
2019,09,30,09,21,3.60
2019,09,30,09,22,0.20
2019,09,30,09,23,0.40
2019,09,30,09,24,0.20
2019,09,30,09,25,0.00
2019,09,30,09,26,6.10
2019,09,30,09,27,6.10
2019,09,30,09,28,5.60
2019,09,30,09,29,3.30
2019,09,30,09,30,5.10
2019,09,30,09,31,4.40
2019,09,30,09,32,4.70
2019,09,30,09,33,3.00
2019,09,30,09,34,1.50
2019,09,30,09,35,1.30
2019,09,30,09,36,2.00
2019,09,30,09,37,3.50
2019,09,30,09,38,0.10
2019,09,30,09,39,0.40
2019,09,30,09,40,0.30
2019,09,30,09,41,3.30
2019,09,30,09,42,0.90
2019,09,30,09,43,0.80
2019,09,30,09,44,1.30
2019,09,30,09,45,2.50
2019,09,30,09,46,5.40
2019,09,30,09,47,3.60
2019,09,30,09,48,2.40
2019,09,30,09,49,4.70
2019,09,30,09,50,4.30
2019,09,30,09,51,5.40
2019,09,30,09,52,8.10
2019,09,30,09,53,7.70
2019,09,30,09,54,5.80
2019,09,30,09,55,6.40
2019,09,30,09,56,7.20
2019,09,30,09,57,5.00
2019,09,30,09,58,4.60
2019,09,30,09,59,4.70
2019,09,30,10,00,7.60
2019,09,30,10,01,4.60
2019,09,30,10,02,3.40
2019,09,30,10,03,4.40
2019,09,30,10,04,6.20
2019,09,30,10,05,8.70
2019,09,30,10,06,5.60
2019,09,30,10,07,6.30
2019,09,30,10,08,6.10
2019,09,30,10,09,2.40
2019,09,30,10,10,1.40
2019,09,30,10,11,6.90
2019,09,30,10,12,4.00
2019,09,30,10,13,4.50
2019,09,30,10,14,5.40
2019,09,30,10,15,2.30
2019,09,30,10,16,0.40
2019,09,30,10,17,2.80
2019,09,30,10,18,2.80
2019,09,30,10,19,2.60
2019,09,30,10,20,3.80
2019,09,30,10,21,3.60
2019,09,30,10,22,4.90
2019,09,30,10,23,2.70
2019,09,30,10,24,7.80
2019,09,30,10,25,13.40
2019,09,30,10,26,9.50
2019,09,30,10,27,11.30
2019,09,30,10,28,10.00
2019,09,30,10,29,8.10
2019,09,30,10,30,7.90
2019,09,30,10,31,9.40
2019,09,30,10,32,5.60
2019,09,30,10,33,6.50
2019,09,30,10,34,10.70
2019,09,30,10,35,11.00
2019,09,30,10,36,13.10
2019,09,30,10,37,13.10
2019,09,30,10,38,11.30
2019,09,30,10,39,6.10
2019,09,30,10,40,6.20
2019,09,30,10,41,7.10
2019,09,30,10,42,4.40
2019,09,30,10,43,9.10
2019,09,30,10,44,8.90
2019,09,30,10,45,5.10
2019,09,30,10,46,2.20
2019,09,30,10,47,9.30
2019,09,30,10,48,8.00
2019,09,30,10,49,6.80
2019,09,30,10,50,11.50
2019,09,30,10,51,9.50
2019,09,30,10,52,10.40
2019,09,30,10,53,9.20
2019,09,30,10,54,6.50
2019,09,30,10,55,8.90
2019,09,30,10,56,6.30
2019,09,30,10,57,9.60
2019,09,30,10,58,4.80
2019,09,30,10,59,7.20
2019,09,30,11,00,4.70
2019,09,30,11,01,4.10
2019,09,30,11,02,3.70
2019,09,30,11,03,8.50
2019,09,30,11,04,11.00
2019,09,30,11,05,13.40
2019,09,30,11,06,11.20
2019,09,30,11,07,7.90
2019,09,30,11,08,6.40
2019,09,30,11,09,5.60
2019,09,30,11,10,4.80
2019,09,30,11,11,5.00
2019,09,30,11,12,7.70
2019,09,30,11,13,3.10
2019,09,30,11,14,7.60
2019,09,30,11,15,10.30
2019,09,30,11,16,13.60
2019,09,30,11,17,9.80
2019,09,30,11,18,10.40
2019,09,30,11,19,8.90
2019,09,30,11,20,11.20
2019,09,30,11,21,11.80
2019,09,30,11,22,2.60
2019,09,30,11,23,0.20
2019,09,30,11,24,3.40
2019,09,30,11,25,2.30
2019,09,30,11,26,1.10
2019,09,30,11,27,6.40
2019,09,30,11,28,12.70
2019,09,30,11,29,10.70
2019,09,30,11,30,10.10
2019,09,30,11,31,11.10
2019,09,30,11,32,7.80
2019,09,30,11,33,3.10
2019,09,30,11,34,6.30
2019,09,30,11,35,5.10
2019,09,30,11,36,7.00
2019,09,30,11,37,9.00
2019,09,30,11,38,8.00
2019,09,30,11,39,6.40
2019,09,30,11,40,6.40
2019,09,30,11,41,5.30
2019,09,30,11,42,5.40
2019,09,30,11,43,6.10
2019,09,30,11,44,6.70
2019,09,30,11,45,8.90
2019,09,30,11,46,8.60
2019,09,30,11,47,7.20
2019,09,30,11,48,5.90
2019,09,30,11,49,11.80
2019,09,30,11,50,12.50
2019,09,30,11,51,5.10
2019,09,30,11,52,3.20
2019,09,30,11,53,0.20
2019,09,30,11,54,5.30
2019,09,30,11,55,8.90
2019,09,30,11,56,5.40
2019,09,30,11,57,7.00
2019,09,30,11,58,5.60
2019,09,30,11,59,9.40
2019,09,30,12,00,9.10
2019,09,30,12,01,6.10
2019,09,30,12,02,3.30
2019,09,30,12,03,9.90
2019,09,30,12,04,7.90
2019,09,30,12,05,7.40
2019,09,30,12,06,7.80
2019,09,30,12,07,10.50
2019,09,30,12,08,10.90
2019,09,30,12,09,11.70
2019,09,30,12,10,10.20
2019,09,30,12,11,7.60
2019,09,30,12,12,7.80
2019,09,30,12,13,8.30
2019,09,30,12,14,5.50
2019,09,30,12,15,7.40
2019,09,30,12,16,8.80
2019,09,30,12,17,6.50
2019,09,30,12,18,4.90
2019,09,30,12,19,5.10
2019,09,30,12,20,6.70
2019,09,30,12,21,7.50
2019,09,30,12,22,6.10
2019,09,30,12,23,4.90
2019,09,30,12,24,6.20
2019,09,30,12,25,8.90
2019,09,30,12,26,10.50
2019,09,30,12,27,10.70
2019,09,30,12,28,7.00
2019,09,30,12,29,6.00
2019,09,30,12,30,7.90
2019,09,30,12,31,11.60
2019,09,30,12,32,9.50
2019,09,30,12,33,7.60
2019,09,30,12,34,9.00
2019,09,30,12,35,9.00
2019,09,30,12,36,9.70
2019,09,30,12,37,8.10
2019,09,30,12,38,8.90
2019,09,30,12,39,5.40
2019,09,30,12,40,5.00
2019,09,30,12,41,5.10
2019,09,30,12,42,7.80
2019,09,30,12,43,7.20
2019,09,30,12,44,11.10
2019,09,30,12,45,7.60
2019,09,30,12,46,6.30
2019,09,30,12,47,6.40
2019,09,30,12,48,8.80
2019,09,30,12,49,7.30
2019,09,30,12,50,3.00
2019,09,30,12,51,0.60
2019,09,30,12,52,3.90
2019,09,30,12,53,1.10
2019,09,30,12,54,2.50
2019,09,30,12,55,3.50
2019,09,30,12,56,0.50
2019,09,30,12,57,1.50
2019,09,30,12,58,2.60
2019,09,30,12,59,6.70
2019,09,30,13,00,9.70
2019,09,30,13,01,7.60
2019,09,30,13,02,4.70
2019,09,30,13,03,6.90
2019,09,30,13,04,8.10
2019,09,30,13,05,9.00
2019,09,30,13,06,6.90
2019,09,30,13,07,2.80
2019,09,30,13,08,5.90
2019,09,30,13,09,3.90
2019,09,30,13,10,6.40
2019,09,30,13,11,2.60
2019,09,30,13,12,0.70
2019,09,30,13,13,1.20
2019,09,30,13,14,3.20
2019,09,30,13,15,1.40
2019,09,30,13,16,4.20
2019,09,30,13,17,7.30
2019,09,30,13,18,8.30
2019,09,30,13,19,4.10
2019,09,30,13,20,1.30
2019,09,30,13,21,3.40
2019,09,30,13,22,1.70
2019,09,30,13,23,0.50
2019,09,30,13,24,1.20
2019,09,30,13,25,9.80
2019,09,30,13,26,8.80
2019,09,30,13,27,8.00
2019,09,30,13,28,8.60
2019,09,30,13,29,9.20
2019,09,30,13,30,7.90
2019,09,30,13,31,4.40
2019,09,30,13,32,3.60
2019,09,30,13,33,9.40
2019,09,30,13,34,8.90
2019,09,30,13,35,4.40
2019,09,30,13,36,6.40
2019,09,30,13,37,1.50
2019,09,30,13,38,5.10
2019,09,30,13,39,4.00
2019,09,30,13,40,7.40
2019,09,30,13,41,6.80
2019,09,30,13,42,3.40
2019,09,30,13,43,5.10
2019,09,30,13,44,4.20
2019,09,30,13,45,5.30
2019,09,30,13,46,3.80
2019,09,30,13,47,3.70
2019,09,30,13,48,4.50
2019,09,30,13,49,5.40
2019,09,30,13,50,1.00
2019,09,30,13,51,4.50
2019,09,30,13,52,7.70
2019,09,30,13,53,0.90
2019,09,30,13,54,0.80
2019,09,30,13,55,3.10
2019,09,30,13,56,1.20
2019,09,30,13,57,2.60
2019,09,30,13,58,9.00
2019,09,30,13,59,5.50
2019,09,30,14,00,6.20
2019,09,30,14,01,6.70
2019,09,30,14,02,5.60
2019,09,30,14,03,6.20
2019,09,30,14,04,6.00
2019,09,30,14,05,1.30
2019,09,30,14,06,4.10
2019,09,30,14,07,5.00
2019,09,30,14,08,4.50
2019,09,30,14,09,3.70
2019,09,30,14,10,3.20
2019,09,30,14,11,3.80
2019,09,30,14,12,4.80
2019,09,30,14,13,8.30
2019,09,30,14,14,7.50
2019,09,30,14,15,4.60
2019,09,30,14,16,7.10
2019,09,30,14,17,2.70
2019,09,30,14,18,4.80
2019,09,30,14,19,4.50
2019,09,30,14,20,5.70
2019,09,30,14,21,5.60
2019,09,30,14,22,4.40
2019,09,30,14,23,4.00
2019,09,30,14,24,2.50
2019,09,30,14,25,4.00
2019,09,30,14,26,2.20
2019,09,30,14,27,2.60
2019,09,30,14,28,7.40
2019,09,30,14,29,3.60
2019,09,30,14,30,3.80
2019,09,30,14,31,3.50
2019,09,30,14,32,5.10
2019,09,30,14,33,1.30
2019,09,30,14,34,1.50
2019,09,30,14,35,8.10
2019,09,30,14,36,6.70
2019,09,30,14,37,4.00
2019,09,30,14,38,5.50
2019,09,30,14,39,4.70
2019,09,30,14,40,2.70
2019,09,30,14,41,0.20
2019,09,30,14,42,1.50
2019,09,30,14,43,0.50
2019,09,30,14,44,0.60
2019,09,30,14,45,1.10
2019,09,30,14,46,1.40
2019,09,30,14,47,4.50
2019,09,30,14,48,6.40
2019,09,30,14,49,5.00
2019,09,30,14,50,7.60
2019,09,30,14,51,7.20
2019,09,30,14,52,4.10
2019,09,30,14,53,1.10
2019,09,30,14,54,0.10
2019,09,30,14,55,1.50
2019,09,30,14,56,1.80
2019,09,30,14,57,2.10
2019,09,30,14,58,7.40
2019,09,30,14,59,4.80
2019,09,30,15,00,4.80
2019,09,30,15,01,8.00
2019,09,30,15,02,5.50
2019,09,30,15,03,4.10
2019,09,30,15,04,7.20
2019,09,30,15,05,6.30
2019,09,30,15,06,3.20
2019,09,30,15,07,1.40
2019,09,30,15,08,0.50
2019,09,30,15,09,2.10
2019,09,30,15,10,0.20
2019,09,30,15,11,4.30
2019,09,30,15,12,3.10
2019,09,30,15,13,1.30
2019,09,30,15,14,4.30
2019,09,30,15,15,2.60
2019,09,30,15,16,3.50
2019,09,30,15,17,6.70
2019,09,30,15,18,1.60
2019,09,30,15,19,1.50
2019,09,30,15,20,2.40
2019,09,30,15,21,4.90
2019,09,30,15,22,5.20
2019,09,30,15,23,3.00
2019,09,30,15,24,3.50
2019,09,30,15,25,2.00
2019,09,30,15,26,0.20
2019,09,30,15,27,2.60
2019,09,30,15,28,0.50
2019,09,30,15,29,0.10
2019,09,30,15,30,0.60
2019,09,30,15,31,0.20
2019,09,30,15,32,3.00
2019,09,30,15,33,6.90
2019,09,30,15,34,4.80
2019,09,30,15,35,1.50
2019,09,30,15,36,3.40
2019,09,30,15,37,2.30
2019,09,30,15,38,0.90
2019,09,30,15,39,1.50
2019,09,30,15,40,3.50
2019,09,30,15,41,4.60
2019,09,30,15,42,4.80
2019,09,30,15,43,4.80
2019,09,30,15,44,4.80
2019,09,30,15,45,1.40
2019,09,30,15,46,4.70
2019,09,30,15,47,3.20
2019,09,30,15,48,0.10
2019,09,30,15,49,0.70
2019,09,30,15,50,0.40
2019,09,30,15,51,1.50
2019,09,30,15,52,0.10
2019,09,30,15,53,0.50
2019,09,30,15,54,1.50
2019,09,30,15,55,1.10
2019,09,30,15,56,4.00
2019,09,30,15,57,4.00
2019,09,30,15,58,0.90
2019,09,30,15,59,1.30
2019,09,30,16,00,2.80
2019,09,30,16,01,4.50
2019,09,30,16,02,3.50
2019,09,30,16,03,0.40
2019,09,30,16,04,0.20
2019,09,30,16,05,0.10
2019,09,30,16,06,1.10
2019,09,30,16,07,2.90
2019,09,30,16,08,1.10
2019,09,30,16,09,3.40
2019,09,30,16,10,2.70
2019,09,30,16,11,3.10
2019,09,30,16,12,3.00
2019,09,30,16,13,4.60
2019,09,30,16,14,3.10
2019,09,30,16,15,0.70
2019,09,30,16,16,1.20
2019,09,30,16,17,2.00
2019,09,30,16,18,1.20
2019,09,30,16,19,0.70
2019,09,30,16,20,1.50
2019,09,30,16,21,1.20
2019,09,30,16,22,0.10
2019,09,30,16,23,2.40
2019,09,30,16,24,2.70
2019,09,30,16,25,2.30
2019,09,30,16,26,1.10
2019,09,30,16,27,1.00
2019,09,30,16,28,0.60
2019,09,30,16,29,0.10
2019,09,30,16,30,1.40
2019,09,30,16,31,2.10
2019,09,30,16,32,2.60
2019,09,30,16,33,3.80
2019,09,30,16,34,3.60
2019,09,30,16,35,2.80
2019,09,30,16,36,1.30
2019,09,30,16,37,1.20
2019,09,30,16,38,0.40
2019,09,30,16,39,0.30
2019,09,30,16,40,0.10
2019,09,30,16,41,1.10
2019,09,30,16,42,2.70
2019,09,30,16,43,1.10
2019,09,30,16,44,0.20
2019,09,30,16,45,0.40
2019,09,30,16,46,0.00
2019,09,30,16,47,0.00
2019,09,30,16,48,0.10
2019,09,30,16,49,1.20
2019,09,30,16,50,0.40
2019,09,30,16,51,1.80
2019,09,30,16,52,1.20
2019,09,30,16,53,0.10
2019,09,30,16,54,1.60
2019,09,30,16,55,0.10
2019,09,30,16,56,0.00
2019,09,30,16,57,0.00
2019,09,30,16,58,0.00
2019,09,30,16,59,0.00
2019,09,30,17,00,0.10
2019,09,30,17,01,0.70
2019,09,30,17,02,4.10
2019,09,30,17,03,3.50
2019,09,30,17,04,3.10
2019,09,30,17,05,4.10
2019,09,30,17,06,3.60
2019,09,30,17,07,4.30
2019,09,30,17,08,0.80
2019,09,30,17,09,0.20
2019,09,30,17,10,0.00
2019,09,30,17,11,0.00
2019,09,30,17,12,0.00
2019,09,30,17,13,0.00
2019,09,30,17,14,0.00
2019,09,30,17,15,0.10
2019,09,30,17,16,0.60
2019,09,30,17,17,2.30
2019,09,30,17,18,2.70
2019,09,30,17,19,4.70
2019,09,30,17,20,2.50
2019,09,30,17,21,4.10
2019,09,30,17,22,5.60
2019,09,30,17,23,6.50
2019,09,30,17,24,4.20
2019,09,30,17,25,7.30
2019,09,30,17,26,6.70
2019,09,30,17,27,6.90
2019,09,30,17,28,2.90
2019,09,30,17,29,0.20
2019,09,30,17,30,0.70
2019,09,30,17,31,3.20
2019,09,30,17,32,2.00
2019,09,30,17,33,1.40
2019,09,30,17,34,1.40
2019,09,30,17,35,4.40
2019,09,30,17,36,6.80
2019,09,30,17,37,7.00
2019,09,30,17,38,6.10
2019,09,30,17,39,3.10
2019,09,30,17,40,3.90
2019,09,30,17,41,3.70
2019,09,30,17,42,4.00
2019,09,30,17,43,4.10
2019,09,30,17,44,3.30
2019,09,30,17,45,1.60
2019,09,30,17,46,0.20
2019,09,30,17,47,1.30
2019,09,30,17,48,1.30
2019,09,30,17,49,1.80
2019,09,30,17,50,1.70
2019,09,30,17,51,0.90
2019,09,30,17,52,2.30
2019,09,30,17,53,1.80
2019,09,30,17,54,0.80
2019,09,30,17,55,1.20
2019,09,30,17,56,4.10
2019,09,30,17,57,3.30
2019,09,30,17,58,3.70
2019,09,30,17,59,3.90
2019,09,30,18,00,2.70
2019,09,30,18,01,1.80
2019,09,30,18,02,2.80
2019,09,30,18,03,1.10
2019,09,30,18,04,1.00
2019,09,30,18,05,1.80
2019,09,30,18,06,0.80